THOR ABLESTAR DEB, 541

Orbit data source: Space-Track

THOR ABLESTAR DEB, 541 is space debris in LEO originally from a launch on Thu, 29 Jun 1961 UTC launched from the Air Force Eastern Test Range (AFETR). Debris objects in space refer to the collection of defunct objects orbiting the Earth. Examples of debris include non-operational satellites, rocket bodies, and fragments generated from explosions, collisions, or faulty payload assembly.

Loading next visibility...
Identifier
541, 1961-015GA
Orbit
LEO
Country
Flag of USUS
Related business
Manufacturer
Unknown
Mission
Spacecraft
Bus & Motor
Unknown
Mass
Unknown
Launch date (UTC)
1961-06-29 (65 years ago)
Launch vehicle
Unknown
Launch site
Air Force Eastern Test Range (AFETR)
Object type
Payload
Rocket body
Debris
Shape & HBR
Unknown shape, 0.1 m
Radar Cross Section
Medium (>0.1 m² and <1 m²)

Expand to show TLE details & history
Last TLE update: 16 hours ago

TLE from 16 hours ago
0 THOR ABLESTAR DEB
1 00541U 61015GA  26175.96810029  .00000129  00000-0  16967-3 0  9993
2 00541  67.2189  25.0837 0082677 268.6975  90.4632 13.86387965273409
Epoch: 2026-06-24T23:14Z
TLE epoch observation values (Epoch: 2026-06-24T23:14:03.865Z)
Latitude
-0.00002°
Longitude
123.44988°
Altitude
944.409 km
Speed
7.379 km/s
True Right ascension
01h 40m 20s
True Declination
0° 00' 00"
Sunlit
Object was in daylight at epoch
Visualization orbit readout
Latitude
Unknown
Longitude
Unknown
Altitude
Unknown
Speed
Unknown
Apparent Right ascension
Unknown
Apparent Declination
Unknown
Sunlit
N/A
Visualization observer readout
Local Sidereal Time
02:24:22
Azimuth
Unknown
Elevation
Unknown
Doppler factor
Unknown
Orbital elements
Apogee altitude
1,000.167 km
Perigee altitude
879.164 km
Semi-major axis
7,317.803 km
Eccentricity
0.00827
Inclination
67.2189°
RAAN
25.0837°
Arg. of periapsis
268.6975°
True anomaly
91.41046°
Mean anomaly
90.4632°
Eccentric anomaly
90.93684°
Mean motion
3.46715 °/min
Orbital period
103.83 mins
BSTAR
0.00016967
Loading maneuver chart data...
Computing Atmospheric mass density...

Documentation

Showing up to 5 results
|